Location: Boiro
(42.6475°N, 8.8834°W)
Time: 03:20:54
(UTC+01:00)

Vanguard 1 Rocket - Pass Details

Date: 06 December 2021
Orbit: 651 x 4224 km, 34.3° (Epoch: 21 January)

Event Time Altitude Azimuth Distance (km) Brightness Sun altitude
Rises 09:31:41 0° 280° (W) 6,472 11.2 5.3°
Reaches altitude 10° 09:35:49 10° 273° (W) 5,879 11.1 5.9°
Maximum altitude 09:53:17 38° 214° (SSW) 5,106 11.4 8.4°
Drops below altitude 10° 10:15:35 10° 156° (SSE) 7,306 13.7 11.4°
Sets 10:21:43 0° 149° (SSE) 8,115 14.1 12.1°
